Showing default

TJS-20, 66142

Orbit data source: Space-Track

TJS-20, 66142 is a Chinese payload satellite in GEO that was launched on Thu, 23 Oct 2025 UTC via a CHANG ZHENG 5 launch vehicle from the Wenchang Satellite Launch Center (WSC). Payload-class satellites include a variety of spacecraft equipped with specific instruments for various scientific and technological missions. These include communications satellites like Starlink; space stations such as the ISS; scientific satellites like the Hubble; Earth observation satellites from companies like Planet Labs, Umbra, and HawkEye 360; GPS; miniature CubeSats for education and research; and military/defense satellites.

Not visible in the next 10 days
Identifier
66142, 2025-238A
Orbit
GEO
Country
Flag of CNCN / PRC
Related business
Manufacturer
CAST
Mission
Operational Defense Sigint
Bus & Motor
TJS11, Unknown motor
Mass
~10,000 kg wet, ~6,000 kg dry
Launch date (UTC)
2025-10-23 (9 months ago)
Launch vehicle
CHANG ZHENG 5
Launch site
Wenchang Satellite Launch Center (WSC)
Object type
Payload
Rocket body
Debris
Shape & HBR
Box + 2 Pan + 1 Dish, 22.5 m
Radar Cross Section
63.841 m², Large (>1 m²)

Expand to show TLE details & history
Last TLE update: 19 hours ago

TLE from 19 hours ago
0 TJS-20
1 66142U 25238A   26194.85852221  .00000025  00000-0  00000+0 0  9990
2 66142   5.4113 299.4463 0004283 181.7914 182.0051  1.00274397  2608
Epoch: 2026-07-13T20:36Z
TLE epoch observation values (Epoch: 2026-07-13T20:36:16.318Z)
Latitude
0.33339°
Longitude
62.42331°
Altitude
35,803.454 km
Speed
3.073 km/s
True Right ascension
20h 12m 54s
True Declination
0° 19' 59"
Sunlit
Object was in daylight at epoch
Visualization orbit readout
Latitude
Unknown
Longitude
Unknown
Altitude
Unknown
Speed
Unknown
Apparent Right ascension
Unknown
Apparent Declination
Unknown
Sunlit
N/A
Visualization observer readout
Local Sidereal Time
04:19:27
Azimuth
Unknown
Elevation
Unknown
Doppler factor
Unknown
Orbital elements
Apogee altitude
35,804.978 km
Perigee altitude
35,768.86 km
Semi-major axis
42,165.056 km
Eccentricity
0.00043
Inclination
5.4113°
RAAN
299.4463°
Arg. of periapsis
181.7914°
True anomaly
182.00338°
Mean anomaly
182.0051°
Eccentric anomaly
182.00424°
Mean motion
0.25068 °/min
Orbital period
1,436.11 mins
BSTAR
0
Loading maneuver chart data...
Computing Atmospheric mass density...
Loading historical data...
Loading historical data...
Loading historical data...
Loading historical data...
Loading historical data...
Loading historical data...
Loading historical data...
Other satellites on launch #238 in the year 2025 (2025-10-23 UTC)

Documentation

Showing up to 5 results
|